Location: Unspecified
(61.2180°N, 0.0000°E)
Time: 02:35:26
(UTC+00:00)

FORMOSAT 3C - Visible Passes

Search period start: 04 April 2026 00:00
Search period end: 14 April 2026 00:00
Orbit: 763 x 812 km, 72.0° (Epoch: 29 March)

Date Brightness Start Highest point End Pass type
(mag) Time Alt. Az. Time Alt. Az. Time Alt. Az.
4 Apr ? 00:11:26 14° ESE 00:12:27 15° E 00:15:25 10° ENE visible
4 Apr ? 01:52:05 35° S 01:54:06 56° ESE 01:59:25 10° NE visible
4 Apr ? 03:32:44 15° WSW 03:37:00 50° NW 03:42:19 10° NE visible
4 Apr ? 23:40:31 11° ESE 23:41:20 11° E 23:42:55 10° ENE visible
5 Apr ? 01:21:10 35° SSE 01:22:44 44° ESE 01:27:52 10° NE visible
5 Apr ? 03:01:48 21° WSW 03:05:25 60° NW 03:10:50 10° NE visible
6 Apr ? 00:50:13 31° SE 00:51:26 35° ESE 00:56:18 10° NE visible
6 Apr ? 02:30:51 27° SW 02:33:54 73° NW 02:39:21 10° NE visible
6 Apr ? 04:12:35 10° W 04:17:27 33° NNW 04:22:23 10° NE visible
7 Apr ? 00:19:14 26° ESE 00:20:11 27° ESE 00:24:40 10° NE visible
7 Apr ? 01:59:53 33° SW 02:02:23 88° NW 02:07:52 10° NE visible
7 Apr ? 03:40:47 10° W 03:45:46 37° NNW 03:50:50 10° NE visible
7 Apr ? 23:48:15 21° ESE 23:48:57 21° ESE 23:52:57 10° NE visible
8 Apr ? 01:28:53 39° SSW 01:30:56 76° SE 01:36:23 10° NE visible
8 Apr ? 03:09:32 13° W 03:14:06 42° NNW 03:19:18 10° NE visible
8 Apr ? 23:17:13 16° ESE 23:17:47 16° E 23:21:03 10° ENE visible
9 Apr ? 00:57:52 41° S 00:59:31 60° ESE 01:04:53 10° NE visible
9 Apr ? 02:38:30 17° WSW 02:42:29 48° NW 02:47:47 10° NE visible
9 Apr ? 22:46:10 12° E 22:46:40 12° E 22:48:48 10° ENE visible
10 Apr ? 00:26:49 39° SSE 00:28:08 47° ESE 00:33:21 10° NE visible
10 Apr ? 02:07:27 22° WSW 02:10:53 57° NW 02:16:18 10° NE visible
10 Apr ? 03:49:57 10° WNW 03:54:41 30° NNW 03:59:29 10° NE visible
10 Apr ? 23:55:44 34° SE 23:56:49 37° ESE 00:01:47 10° NE visible
11 Apr ? 01:36:22 27° WSW 01:39:20 69° NW 01:44:48 10° NE visible
11 Apr ? 03:18:06 10° W 03:22:57 32° NNW 03:27:52 10° NE visible
11 Apr ? 23:24:37 28° SE 23:25:32 29° ESE 23:30:10 10° NE visible
12 Apr ? 01:05:16 32° SW 01:07:49 83° NW 01:13:19 10° NE visible
12 Apr ? 02:46:17 10° W 02:51:15 36° NNW 02:56:18 10° NE visible
12 Apr ? 22:53:29 22° ESE 22:54:19 23° ESE 22:58:29 10° NE visible
13 Apr ? 00:34:07 37° SSW 00:36:21 80° SE 00:41:50 10° NE visible
13 Apr ? 02:14:45 11° W 02:19:35 40° NNW 02:24:45 10° NE visible
13 Apr ? 22:22:19 17° ESE 22:23:07 18° E 22:26:39 10° ENE visible
